Location: ??????
(56.0120°N, 39.1740°E)
Time: 06:30:35
(UTC+00:00)

Cosmos 1980 Rocket - Pass Details

Date: 14 April 2026
Orbit: 826 x 850 km, 71.0° (Epoch: 10 May)

Event Time Altitude Azimuth Distance (km) Brightness Sun altitude
Rises 22:42:45 0° 325° (NW) 3,422 5.8 -22.3°
Reaches altitude 10° 22:45:12 10° 325° (NW) 2,485 5.0 -22.1°
Maximum altitude 22:50:56 88° 240° (WSW) 859 2.1 -21.8°
Enters shadow 22:54:20 26° 148° (SSE) 1,631 3.4 -21.6°
